Regional Weather Roundup
Issued by NWS Raleigh/Durham, NC

Home | Current Version | Previous Version | Text Only | Print | Product List | Glossary On
Versions: 1 2 3 4 5 6 7 8 9 10 11 12 13 14 15 16 17 18 19 20 21 22 23 24 25 26 27 28 29 30 31 32 33 34 35 36 37 38 39 40 41 42 43 44 45 46 47 48 49 50
000
ASUS42 KRAH 230010
RWRRAH
NORTH CAROLINA WEATHER ROUNDUP
NATIONAL WEATHER SERVICE RALEIGH NC
800 PM EDT THU JUN 22 2017

NOTE: "FAIR" INDICATES FEW OR NO CLOUDS BELOW 12,000 FEET WITH NO
SIGNIFICANT WEATHER AND/OR OBSTRUCTIONS TO VISIBILITY.

NCZ001-053-055-056-065-067-230100-
WESTERN NORTH CAROLINA

CITY           SKY/WX    TMP DP  RH WIND       PRES   REMARKS
ASHEVILLE      CLOUDY    72  67  84 SE7       30.12F
JEFFERSON      LGT RAIN  66  66  99 CALM      30.17S
HICKORY        CLOUDY    74  73  97 S5        30.08S
RUTHERFORDTON  NOT AVBL
MOUNT AIRY     LGT RAIN  75  68  79 CALM      30.09S
BOONE          NOT AVBL
$$

NCZ021-022-025-041-071-084-088-230100-
CENTRAL NORTH CAROLINA

CITY           SKY/WX    TMP DP  RH WIND       PRES   REMARKS
CHARLOTTE      CLOUDY    77  69  76 S6        30.08R
GREENSBORO     LGT RAIN  75  73  93 SW7       30.05F
WINSTON-SALEM  PTCLDY    76  69  79 SW5       30.08R
RALEIGH-DURHAM CLOUDY    75  71  87 SW9       30.05S
FORT BRAGG     MOCLDY    78  70  74 SW5       30.06R
FAYETTEVILLE   MOCLDY    80  75  84 S3        30.06R
BURLINGTON     MOCLDY    76  72  87 S5        30.05S
LAURINBURG     CLOUDY    78  73  84 S5        30.07S
$$

NCZ011-015-027-028-043-044-047-080-103-230100-
NORTHEASTERN NORTH CAROLINA

CITY           SKY/WX    TMP DP  RH WIND       PRES   REMARKS
ROCKY MT-WILSO MOCLDY    78  75  90 S5        30.03F
GREENVILLE     MOCLDY    81  77  89 SW5       30.06S
WASHINGTON     CLOUDY    79  76  90 SW5       30.04S
ELIZABETH CITY CLOUDY    82  76  81 SW8       30.01S
MANTEO         CLOUDY    82  74  75 W9        30.02S
CAPE HATTERAS  LGT RAIN  80  75  84 W8        30.05S
$$

NCZ078-087-090-091-093-098-101-230100-
SOUTHEASTERN NORTH CAROLINA

CITY           SKY/WX    TMP DP  RH WIND       PRES   REMARKS
LUMBERTON      CLOUDY    79  74  84 S3        30.07R
GOLDSBORO      MOCLDY    78  77  98 S3        30.04S
KINSTON        MOCLDY    79  77  94 SW3       30.06S
KENANSVILLE    CLOUDY    77  75  94 CALM      30.06S
NEW BERN       CLOUDY    77  75  93 S6        30.06R
CHERRY POINT   CLOUDY    79  75  87 CALM      30.06S
BEAUFORT       CLOUDY    80  79  96 S5        30.05F
JACKSONVILLE   CLOUDY    78  77  96 SW5       30.05S
WILMINGTON     CLOUDY    78  77  96 CALM      30.07S
$$




USA.gov is the U.S. government's official web portal to all federal, state and local government web resources and services.